Tracking 33068 objects as of 24-Jan-2026
HD Live streaming from Space Station
objects crossing your sky now

THORAD DELTA 1 DEB

Track THORAD DELTA 1 DEB now!
10-day predictions


NORAD ID: 8163
Int'l Code: 1974-089AD
Perigee: 1,263.1 km
Apogee: 1,770.6 km
Inclination: 102.5 °
Period: 116.2 minutes
Semi major axis: 7887 km
RCS: 0.0599 m2 (small)
Launch date: November 15, 1974
Source: United States (US)
Launch site: AIR FORCE WESTERN TEST RANGE (AFWTR)

Note: This is SATELLITE DEBRIS
Your satellite tracking list
Your tracking list is empty




NASA's NSSDC Master Catalog

Two Line Element Set (TLE):
1 08163U 74089AD  26021.97694521  .00001249  00000-0  81975-2 0  9998
2 08163 102.4899  40.5911 0321683 323.7435  34.2208 12.39273273292576
Source of the keplerian elements: AFSPC